Location: *
(51.1248°S, 108.4023°W)
Time: 14:10:54
(UTC+00:00)

SMAP - Visible Passes

Search period start: 22 October 2021 00:00
Search period end: 01 November 2021 00:00
Orbit: 681 x 683 km, 98.1° (Epoch: 21 October)

Date Brightness Start Highest point End Pass type
(mag) Time Alt. Az. Time Alt. Az. Time Alt. Az.
22 Oct 6.2 03:13:34 10° SSW 03:16:57 20° WSW 03:20:20 10° WNW visible
22 Oct 6.2 11:07:37 10° ENE 11:11:06 21° ESE 11:14:37 10° S visible
23 Oct 6.8 03:51:45 10° SW 03:52:57 11° SW 03:54:09 10° WSW visible
24 Oct 5.5 02:48:47 10° S 02:52:52 29° WSW 02:56:56 10° WNW visible
24 Oct 6.6 10:44:38 10° E 10:47:06 14° SE 10:49:33 10° SSE visible
25 Oct 6.4 03:26:05 10° SSW 03:28:59 16° SW 03:31:53 10° W visible
27 Oct 5.9 03:01:10 10° S 03:04:56 24° WSW 03:08:42 10° WNW visible
27 Oct 6.4 10:56:04 10° E 10:59:07 17° SE 11:02:10 10° SSE visible
28 Oct 6.6 03:38:45 10° SSW 03:40:59 13° SW 03:43:14 10° W visible
29 Oct 6.9 10:33:32 10° ESE 10:35:08 12° SE 10:36:44 10° SSE visible
30 Oct 6.2 03:13:36 10° SSW 03:16:59 20° WSW 03:20:21 10° WNW visible
31 Oct 6.9 03:51:47 10° SW 03:52:58 11° SW 03:54:10 10° WSW visible
